Simultaneous Nadir Overpasses (SNOs) Predictions

Prediction of SNOs between FY3D and TERRA Satellite Orbit:

Table of predicted SNOs for the next 14.0 days since TLE Epoch: 12/1/2024
Index Date (FY3D) Time (FY3D) Lat,Lon (FY3D) SZA (FY3D ) Date (TERRA) Time (TERRA) Lat,Lon (TERRA) SZA (TERRA ) Distance(km) Time Diff (sec)
1 12/01/2024 09:13:54 77.10, 39.96 98.93 12/01/2024 09:15:00 77.01, 42.80 98.87 71.31 66
2 12/01/2024 10:04:27 -76.62,-150.75 81.53 12/01/2024 10:04:28 -76.63,-150.85 81.53 2.71 1
3 12/01/2024 10:55:03 76.17, 18.27 98.05 12/01/2024 10:53:57 76.20, 15.43 98.04 75.39 66
4 12/03/2024 20:26:15 76.69,-126.39 98.88 12/03/2024 20:27:14 76.71,-126.33 98.90 2.47 59
5 12/03/2024 21:16:58 -76.65, 41.09 81.16 12/03/2024 21:16:35 -76.66, 41.19 81.15 3.12 23
6 12/06/2024
